Location: Hilton Head Island
(32.2163°N, 80.7526°W)
Time: 15:09:13
(UTC-04:00)

Vanguard 2 Rocket - Pass Details

Date: 16 February 2026
Orbit: 553 x 3286 km, 32.9° (Epoch: 10 March)

Event Time Altitude Azimuth Distance (km) Brightness Sun altitude
Rises 17:08:21 0° 280° (W) 6,285 12.3 11.6°
Reaches altitude 10° 17:13:09 10° 280° (W) 4,861 11.8 10.6°
Maximum altitude 17:25:41 83° 195° (SSW) 1,449 8.2 8.2°
Drops below altitude 10° 17:32:29 10° 108° (ESE) 2,768 8.9 6.8°
Sets 17:34:32 0° 107° (ESE) 3,489 9.4 6.4°
